Showing default

FIRESAT0, 63256

Orbit data source: Space-Track

FIRESAT0, 63256 is a payload satellite owned by Muon Space (US) in SSO that was launched on Sat, 15 Mar 2025 UTC via an FALCON 9 launch vehicle from the Air Force Western Test Range (AFWTR). Payload-class satellites include a variety of spacecraft equipped with specific instruments for various scientific and technological missions. These include communications satellites like Starlink; space stations such as the ISS; scientific satellites like the Hubble; Earth observation satellites from companies like Planet Labs, Umbra, and HawkEye 360; GPS; miniature CubeSats for education and research; and military/defense satellites.

Loading next visibility...
Identifier
63256, 2025-052AY
Orbit
SSO
Country
Flag of USUS
Related business
Manufacturer
Muon Space
Mission
Operational Commercial Imaging
Bus & Motor
MUON, Unknown motor
Mass
135 kg wet, 132 kg dry
Launch date (UTC)
2025-03-15 (1 year ago)
Launch vehicle
FALCON 9
Launch site
Air Force Western Test Range (AFWTR)
Object type
Payload
Rocket body
Debris
Shape & HBR
Box + 2 Pan, 1.7 m
Radar Cross Section
2.173 m², Large (>1 m²)

Expand to show TLE details & history
Last TLE update: 7 hours ago

TLE from 7 hours ago
0 FIRESAT0
1 63256U 25052AY  26175.17364426  .00001173  00000-0  11838-3 0  9996
2 63256  97.6960  66.1934 0000990 102.4115 257.7216 14.92933557 69634
Epoch: 2026-06-24T04:10Z
TLE epoch observation values (Epoch: 2026-06-24T04:10:02.864Z)
Latitude
0.00006°
Longitude
91.34681°
Altitude
591.986 km
Speed
7.564 km/s
True Right ascension
04h 24m 46s
True Declination
0° 00' 00"
Sunlit
Object was in daylight at epoch
Visualization orbit readout
Latitude
Unknown
Longitude
Unknown
Altitude
Unknown
Speed
Unknown
Apparent Right ascension
Unknown
Apparent Declination
Unknown
Sunlit
N/A
Visualization observer readout
Local Sidereal Time
21:57:04
Azimuth
Unknown
Elevation
Unknown
Doppler factor
Unknown
Orbital elements
Apogee altitude
586.498 km
Perigee altitude
585.119 km
Semi-major axis
6,963.946 km
Eccentricity
0.0001
Inclination
97.696°
RAAN
66.1934°
Arg. of periapsis
102.4115°
True anomaly
257.71052°
Mean anomaly
257.7216°
Eccentric anomaly
257.71606°
Mean motion
3.73474 °/min
Orbital period
96.39 mins
BSTAR
0.00011838
Loading maneuver chart data...
Computing Atmospheric mass density...
Loading historical data...
Loading historical data...
Loading historical data...
Loading historical data...
Loading historical data...
Loading historical data...
Loading historical data...

Documentation

Showing up to 5 results
|